ネオワイズ彗星

C/2020 F3 ( NEOWISE )

English version
Home page
Updated on July 7, 2020

---------------------------------------------------------------------

・ プロフィール

発見日 2020年3月27日
発見光度 17等
発見者 Near-Earth Object Wide-field Infrared Survey Explorer

・ 写真集

・ 軌道要素

Epoch 2020 July 10.0 TT = JDT 2459040.5
T 2020 July 3.68133 TT                                  Rudenko
q   0.2947065            (2000.0)            P               Q
z  +0.0027459      Peri.   37.27428     +0.71858402     +0.14393304
 +/-0.0000297      Node    61.01114     +0.28198556     -0.95461655
e   0.9991908      Incl.  128.93729     +0.63570524     +0.26074993
From 335 observations 2020 Mar. 27-June 5, mean residual 0".4.

・ 星図

・ 光度変化

        m1 = 3.5 + 5 logΔ + 30   log r  [   ,-66]  (              〜2020年 4月28日)
        m1 = 7.0 + 5 logΔ + 12.0 log r  [-66,   ]  (2020年 4月28日〜              )

---------------------------------------------------------------------

軌道要素はM.P.E.C. 2020-M114に掲載されたものです。
星図はステラナビゲータ Ver.10 (アストロアーツ) で作成したものです。
光度グラフはComet for Windowsで作成したものです。

---------------------------------------------------------------------

Copyright(C) Seiichi Yoshida (comet@aerith.net). All rights reserved.